AKDT,Max TemperatureF,Mean TemperatureF,Min TemperatureF,Max Dew PointF,MeanDew PointF,Min DewpointF,Max Humidity, Mean Humidity, Min Humidity, Max Sea Level PressureIn, Mean Sea Level PressureIn, Min Sea Level PressureIn, Max VisibilityMiles, Mean VisibilityMiles, Min VisibilityMiles, Max Wind SpeedMPH, Mean Wind SpeedMPH, Max Gust SpeedMPH,PrecipitationIn, CloudCover, Events, WindDirDegrees
2013-9-1,55,50,46,52,50,45,100,92,82,29.85,29.80,29.73,10,10,5,13,5,,0.03,8,Rain,183
2013-9-2,55,52,48,54,51,48,100,99,90,29.73,29.65,29.53,10,8,2,13,3,,0.39,8,Rain,359
2013-9-3,60,53,46,54,49,45,100,92,60,29.52,29.38,29.29,10,9,4,17,6,23,0.19,7,Rain,99
2013-9-4,54,50,46,49,46,40,100,89,71,29.81,29.57,29.42,10,9,4,24,7,32,0.28,6,Rain,179
2013-9-5,55,48,42,48,44,40,96,83,66,30.02,29.95,29.83,10,10,6,7,4,,0.00,7,,92
2013-9-6,53,48,46,48,47,45,100,92,83,29.99,29.60,29.39,10,9,3,28,15,37,0.47,7,Rain,24
2013-9-7,57,52,48,52,51,48,100,96,81,29.65,29.57,29.44,10,8,2,18,7,25,0.52,8,Rain,352
2013-9-8,55,50,46,50,47,43,100,88,64,29.84,29.64,29.49,10,10,10,24,9,33,0.00,4,,202
2013-9-9,59,54,48,51,46,44,100,80,58,29.82,29.69,29.60,10,10,7,17,9,24,0.14,8,Rain,56
2013-9-10,57,54,50,54,51,50,100,98,87,29.75,29.71,29.67,10,9,5,9,6,,0.52,8,Rain,50
2013-9-11,54,50,46,52,48,43,100,95,77,29.91,29.70,29.62,10,8,2,21,7,28,0.31,6,Rain,321
2013-9-12,57,50,42,47,43,41,97,82,55,30.00,29.95,29.91,10,10,9,12,4,,0.09,6,Rain,90
2013-9-13,61,54,48,50,48,45,97,85,57,29.94,29.90,29.86,10,10,10,17,12,24,0.05,7,Rain,20
2013-9-14,64,55,46,49,46,42,97,75,45,29.93,29.89,29.86,10,10,9,14,9,,0.00,1,,17
2013-9-15,60,50,41,48,44,34,100,80,39,29.90,29.84,29.74,10,10,10,13,4,,0.00,1,,302
2013-9-16,55,44,33,46,41,33,100,84,57,29.73,29.60,29.50,10,10,4,8,3,,0.01,0,,207
2013-9-17,54,48,41,46,43,39,100,87,69,29.55,29.49,29.47,10,10,10,6,1,,0.02,7,Rain,360
2013-9-18,52,45,39,45,42,39,100,91,71,29.63,29.59,29.55,10,10,2,13,4,,0.09,7,Rain,168
2013-9-19,51,43,36,41,35,26,96,75,39,29.60,29.54,29.44,10,10,10,8,4,,0.06,4,Rain,41
2013-9-20,46,37,28,32,26,19,96,69,34,29.43,29.30,29.04,10,10,10,10,5,,0.00,0,,22
2013-9-21,43,36,30,39,33,27,93,78,60,29.02,29.00,28.98,10,10,10,15,8,24,0.03,5,Rain,10
2013-9-22,48,42,37,35,24,18,86,51,33,29.33,29.14,28.98,10,10,10,17,9,25,0.00,4,,18
2013-9-23,48,39,28,29,21,19,92,48,32,29.78,29.56,29.34,10,10,10,20,12,26,0.00,1,,17
2013-9-24,43,34,26,38,28,24,100,76,51,29.98,29.91,29.79,10,10,6,13,5,,0.11,3,Rain,30
2013-9-25,48,42,37,46,43,38,100,97,83,29.80,29.58,29.46,10,9,5,14,7,,0.87,8,Rain,7
2013-9-26,46,44,41,45,43,41,100,99,93,29.63,29.48,29.21,10,8,0,13,6,,0.11,8,Fog-Rain,27
2013-9-27,50,44,39,42,41,39,100,89,68,29.16,29.04,28.93,10,10,10,28,11,38,0.04,7,Rain,20
2013-9-28,51,43,35,43,37,33,100,82,56,29.17,29.14,29.10,10,10,10,13,2,,0.00,5,,314
2013-9-29,52,46,41,34,31,29,73,58,43,29.40,29.30,29.19,10,10,10,14,6,22,0.00,8,,327
2013-9-30,52,44,37,33,30,27,79,59,38,29.67,29.53,29.42,10,10,10,16,7,22,0.00,3,,330